TimeCDT,TemperatureF,Dew PointF,Humidity,Sea Level PressureIn,VisibilityMPH,Wind Direction,Wind SpeedMPH,Gust SpeedMPH,PrecipitationIn,Events,Conditions,WindDirDegrees,DateUTC
12:54 AM,48.9,42.1,77,29.93,8.0,Calm,Calm,-,N/A,,Clear,0,2012-10-01 05:54:00
1:54 AM,45.0,41.0,86,29.92,8.0,North,4.6,-,N/A,,Clear,360,2012-10-01 06:54:00
2:54 AM,46.0,41.0,83,29.92,9.0,NNW,3.5,-,N/A,,Clear,340,2012-10-01 07:54:00
3:54 AM,46.0,41.0,83,29.91,9.0,North,3.5,-,N/A,,Clear,350,2012-10-01 08:54:00
4:54 AM,45.0,41.0,86,29.91,9.0,Calm,Calm,-,N/A,,Clear,0,2012-10-01 09:54:00
5:54 AM,46.4,41.0,81,29.92,9.0,Calm,Calm,-,N/A,,Clear,0,2012-10-01 10:54:00
6:54 AM,42.1,37.9,85,29.92,9.0,North,3.5,-,N/A,,Clear,360,2012-10-01 11:54:00
7:54 AM,53.1,42.1,66,29.95,8.0,North,13.8,-,N/A,,Clear,350,2012-10-01 12:54:00
8:54 AM,63.0,46.9,56,29.96,9.0,North,20.7,27.6,N/A,,Scattered Clouds,360,2012-10-01 13:54:00
9:54 AM,69.1,48.9,49,29.97,9.0,North,24.2,34.5,N/A,,Clear,350,2012-10-01 14:54:00
10:54 AM,71.1,48.9,45,29.98,10.0,North,26.5,34.5,N/A,,Clear,350,2012-10-01 15:54:00
11:54 AM,68.0,48.0,49,29.99,9.0,NNW,29.9,36.8,N/A,,Scattered Clouds,330,2012-10-01 16:54:00
12:54 PM,64.9,51.1,61,30.01,10.0,NNW,26.5,32.2,N/A,,Overcast,340,2012-10-01 17:54:00
1:54 PM,63.0,51.1,65,30.01,10.0,NNW,19.6,-,N/A,,Overcast,340,2012-10-01 18:54:00
2:54 PM,63.0,46.9,56,30.00,10.0,North,19.6,-,N/A,,Overcast,350,2012-10-01 19:54:00
3:54 PM,62.6,44.6,52,30.01,10.0,North,18.4,-,N/A,,Overcast,350,2012-10-01 20:54:00
4:54 PM,64.0,45.0,50,30.00,10.0,NNW,8.1,-,N/A,,Overcast,330,2012-10-01 21:54:00
5:54 PM,68.0,43.0,40,29.98,10.0,North,19.6,24.2,N/A,,Mostly Cloudy,350,2012-10-01 22:54:00
6:54 PM,64.9,42.1,43,29.99,10.0,North,10.4,-,N/A,,Clear,360,2012-10-01 23:54:00
7:54 PM,62.1,41.0,46,29.99,10.0,North,9.2,-,N/A,,Clear,350,2012-10-02 00:54:00
8:54 PM,57.9,41.0,53,30.00,10.0,NNW,6.9,-,N/A,,Clear,340,2012-10-02 01:54:00
9:54 PM,57.0,39.9,53,30.00,10.0,NNW,8.1,-,N/A,,Clear,340,2012-10-02 02:54:00
10:54 PM,55.0,39.9,57,30.01,10.0,NNW,8.1,-,N/A,,Clear,340,2012-10-02 03:54:00
11:54 PM,48.0,39.0,71,30.02,10.0,NNW,6.9,-,N/A,,Clear,340,2012-10-02 04:54:00